Location: Guayaquil
(2.1667°S, 79.9000°W)
Time: 00:09:45
(UTC-05:00)

DNEPR OBJECT AB - Pass Details

Date: 31 March 2018
Orbit: 587 x 704 km, 97.6° (Epoch: 21 October)

Event Time Altitude Azimuth Distance (km) Brightness Sun altitude
Rises 19:13:09 0° 179° (S) 3,020 ? -12.5°
Reaches altitude 10° 19:15:29 10° 185° (S) 2,085 ? -13.1°
Maximum altitude 19:19:51 46° 258° (WSW) 866 ? -14.2°
Drops below altitude 10° 19:24:02 10° 331° (NNW) 2,005 ? -15.2°
Sets 19:26:15 0° 338° (NNW) 2,890 ? -15.8°
